Year,Month,Day,Hour,Minute,Value (Times are PST for temperature in C)
2012,06,25,06,25,10.40
2012,06,25,06,26,10.40
2012,06,25,06,27,10.40
2012,06,25,06,28,10.40
2012,06,25,06,29,10.40
2012,06,25,06,30,10.40
2012,06,25,06,31,10.40
2012,06,25,06,32,10.40
2012,06,25,06,33,10.40
2012,06,25,06,34,10.40
2012,06,25,06,35,10.40
2012,06,25,06,36,10.30
2012,06,25,06,37,10.30
2012,06,25,06,38,10.30
2012,06,25,06,39,10.30
2012,06,25,06,40,10.40
2012,06,25,06,41,10.40
2012,06,25,06,42,10.40
2012,06,25,06,43,10.40
2012,06,25,06,44,10.40
2012,06,25,06,45,10.40
2012,06,25,06,46,10.60
2012,06,25,06,47,10.60
2012,06,25,06,48,10.70
2012,06,25,06,49,10.80
2012,06,25,06,50,10.90
2012,06,25,06,51,10.90
2012,06,25,06,52,10.90
2012,06,25,06,53,10.90
2012,06,25,06,54,11.00
2012,06,25,06,55,11.10
2012,06,25,06,56,11.10
2012,06,25,06,57,11.10
2012,06,25,06,58,11.20
2012,06,25,06,59,11.20
2012,06,25,07,00,11.30
2012,06,25,07,01,11.30
2012,06,25,07,02,11.30
2012,06,25,07,03,11.40
2012,06,25,07,04,11.40
2012,06,25,07,05,11.40
2012,06,25,07,06,11.40
2012,06,25,07,07,11.40
2012,06,25,07,08,11.50
2012,06,25,07,09,11.60
2012,06,25,07,10,11.60
2012,06,25,07,11,11.60
2012,06,25,07,12,11.60
2012,06,25,07,13,11.60
2012,06,25,07,14,11.70
2012,06,25,07,15,11.70
2012,06,25,07,16,11.80
2012,06,25,07,17,11.80
2012,06,25,07,18,11.80
2012,06,25,07,19,11.90
2012,06,25,07,20,11.90
2012,06,25,07,21,12.00
2012,06,25,07,22,12.00
2012,06,25,07,23,12.00
2012,06,25,07,24,12.10
2012,06,25,07,25,12.20
2012,06,25,07,26,12.30
2012,06,25,07,27,12.30
2012,06,25,07,28,12.40
2012,06,25,07,29,12.50
2012,06,25,07,30,12.50
2012,06,25,07,31,12.60
2012,06,25,07,32,12.70
2012,06,25,07,33,12.80
2012,06,25,07,34,12.80
2012,06,25,07,35,12.80
2012,06,25,07,36,12.90
2012,06,25,07,37,13.00
2012,06,25,07,38,13.10
2012,06,25,07,39,13.20
2012,06,25,07,40,13.30
2012,06,25,07,41,13.30
2012,06,25,07,42,13.40
2012,06,25,07,43,13.50
2012,06,25,07,44,13.60
2012,06,25,07,45,13.70
2012,06,25,07,46,13.70
2012,06,25,07,47,13.70
2012,06,25,07,48,13.80
2012,06,25,07,49,13.90
2012,06,25,07,50,13.90
2012,06,25,07,51,14.00
2012,06,25,07,52,14.10
2012,06,25,07,53,14.20
2012,06,25,07,54,14.20
2012,06,25,07,55,14.20
2012,06,25,07,56,14.30
2012,06,25,07,57,14.30
2012,06,25,07,58,14.30
2012,06,25,07,59,14.40
2012,06,25,08,00,14.50
2012,06,25,08,01,14.60
2012,06,25,08,02,14.60
2012,06,25,08,03,14.70
2012,06,25,08,04,14.80
2012,06,25,08,05,14.70
2012,06,25,08,06,14.70
2012,06,25,08,07,14.70
2012,06,25,08,08,14.70
2012,06,25,08,09,14.60
2012,06,25,08,10,14.60
2012,06,25,08,11,14.60
2012,06,25,08,12,14.70
2012,06,25,08,13,14.70
2012,06,25,08,14,14.80
2012,06,25,08,15,14.80
2012,06,25,08,16,14.80
2012,06,25,08,17,14.80
2012,06,25,08,18,14.80
2012,06,25,08,19,14.90
2012,06,25,08,20,14.90
2012,06,25,08,21,14.90
2012,06,25,08,22,14.90
2012,06,25,08,23,15.00
2012,06,25,08,24,15.00
2012,06,25,08,25,15.10
2012,06,25,08,26,15.10
2012,06,25,08,27,15.10
2012,06,25,08,28,15.20
2012,06,25,08,29,15.20
2012,06,25,08,30,15.20
2012,06,25,08,31,15.30
2012,06,25,08,32,15.30
2012,06,25,08,33,15.30
2012,06,25,08,34,15.30
2012,06,25,08,35,15.30
2012,06,25,08,36,15.30
2012,06,25,08,37,15.30
2012,06,25,08,38,15.30
2012,06,25,08,39,15.30
2012,06,25,08,40,15.30
2012,06,25,08,41,15.40
2012,06,25,08,42,15.40
2012,06,25,08,43,15.40
2012,06,25,08,44,15.40
2012,06,25,08,45,15.50
2012,06,25,08,46,15.50
2012,06,25,08,47,15.40
2012,06,25,08,48,15.30
2012,06,25,08,49,15.20
2012,06,25,08,50,15.10
2012,06,25,08,51,15.10
2012,06,25,08,52,15.10
2012,06,25,08,53,15.10
2012,06,25,08,54,15.00
2012,06,25,08,55,15.00
2012,06,25,08,56,15.00
2012,06,25,08,57,15.00
2012,06,25,08,58,15.10
2012,06,25,08,59,15.10
2012,06,25,09,00,15.10
2012,06,25,09,01,15.20
2012,06,25,09,02,15.10
2012,06,25,09,03,15.10
2012,06,25,09,04,15.10
2012,06,25,09,05,15.00
2012,06,25,09,06,15.00
2012,06,25,09,07,14.90
2012,06,25,09,08,14.80
2012,06,25,09,09,14.80
2012,06,25,09,10,14.70
2012,06,25,09,11,14.60
2012,06,25,09,12,14.40
2012,06,25,09,13,14.30
2012,06,25,09,14,14.10
2012,06,25,09,15,14.00
2012,06,25,09,16,13.90
2012,06,25,09,17,13.90
2012,06,25,09,18,13.80
2012,06,25,09,19,13.70
2012,06,25,09,20,13.70
2012,06,25,09,21,13.70
2012,06,25,09,22,13.70
2012,06,25,09,23,13.70
2012,06,25,09,24,13.70
2012,06,25,09,25,13.70
2012,06,25,09,26,13.70
2012,06,25,09,27,13.70
2012,06,25,09,28,13.70
2012,06,25,09,29,13.70
2012,06,25,09,30,13.70
2012,06,25,09,31,13.80
2012,06,25,09,32,13.80
2012,06,25,09,33,13.90
2012,06,25,09,34,13.90
2012,06,25,09,35,13.90
2012,06,25,09,36,14.00
2012,06,25,09,37,14.00
2012,06,25,09,38,14.00
2012,06,25,09,39,14.00
2012,06,25,09,40,14.00
2012,06,25,09,41,14.00
2012,06,25,09,42,14.10
2012,06,25,09,43,14.10
2012,06,25,09,44,14.10
2012,06,25,09,45,14.10
2012,06,25,09,46,14.10
2012,06,25,09,47,14.10
2012,06,25,09,48,14.10
2012,06,25,09,49,14.00
2012,06,25,09,50,14.00
2012,06,25,09,51,14.00
2012,06,25,09,52,14.00
2012,06,25,09,53,14.00
2012,06,25,09,54,14.10
2012,06,25,09,55,14.10
2012,06,25,09,56,14.20
2012,06,25,09,57,14.20
2012,06,25,09,58,14.20
2012,06,25,09,59,14.30
2012,06,25,10,00,14.30
2012,06,25,10,01,14.30
2012,06,25,10,02,14.40
2012,06,25,10,03,14.30
2012,06,25,10,04,14.30
2012,06,25,10,05,14.30
2012,06,25,10,06,14.40
2012,06,25,10,07,14.40
2012,06,25,10,08,14.40
2012,06,25,10,09,14.40
2012,06,25,10,10,14.40
2012,06,25,10,11,14.30
2012,06,25,10,12,14.20
2012,06,25,10,13,14.20
2012,06,25,10,14,14.20
2012,06,25,10,15,14.30
2012,06,25,10,16,14.40
2012,06,25,10,17,14.50
2012,06,25,10,18,14.60
2012,06,25,10,19,14.70
2012,06,25,10,20,14.80
2012,06,25,10,21,14.80
2012,06,25,10,22,14.80
2012,06,25,10,23,14.80
2012,06,25,10,24,14.80
2012,06,25,10,25,14.80
2012,06,25,10,26,14.80
2012,06,25,10,27,14.80
2012,06,25,10,28,14.80
2012,06,25,10,29,14.80
2012,06,25,10,30,14.80
2012,06,25,10,31,14.80
2012,06,25,10,32,14.80
2012,06,25,10,33,14.80
2012,06,25,10,34,14.70
2012,06,25,10,35,14.80
2012,06,25,10,36,14.70
2012,06,25,10,37,14.70
2012,06,25,10,38,14.60
2012,06,25,10,39,14.60
2012,06,25,10,40,14.60
2012,06,25,10,41,14.60
2012,06,25,10,42,14.70
2012,06,25,10,43,14.70
2012,06,25,10,44,14.70
2012,06,25,10,45,14.60
2012,06,25,10,46,14.60
2012,06,25,10,47,14.70
2012,06,25,10,48,14.70
2012,06,25,10,49,14.80
2012,06,25,10,50,14.80
2012,06,25,10,51,14.80
2012,06,25,10,52,14.80
2012,06,25,10,53,14.80
2012,06,25,10,54,14.80
2012,06,25,10,55,14.80
2012,06,25,10,56,14.80
2012,06,25,10,57,14.80
2012,06,25,10,58,14.90
2012,06,25,10,59,14.90
2012,06,25,11,00,14.90
2012,06,25,11,01,15.00
2012,06,25,11,02,15.10
2012,06,25,11,03,15.10
2012,06,25,11,04,15.10
2012,06,25,11,05,15.20
2012,06,25,11,06,15.20
2012,06,25,11,07,15.30
2012,06,25,11,08,15.30
2012,06,25,11,09,15.30
2012,06,25,11,10,15.40
2012,06,25,11,11,15.40
2012,06,25,11,12,15.50
2012,06,25,11,13,15.50
2012,06,25,11,14,15.50
2012,06,25,11,15,15.50
2012,06,25,11,16,15.50
2012,06,25,11,17,15.50
2012,06,25,11,18,15.60
2012,06,25,11,19,15.60
2012,06,25,11,20,15.60
2012,06,25,11,21,15.60
2012,06,25,11,22,15.70
2012,06,25,11,23,15.80
2012,06,25,11,24,15.80
2012,06,25,11,25,15.90
2012,06,25,11,26,16.00
2012,06,25,11,27,16.10
2012,06,25,11,28,16.10
2012,06,25,11,29,16.10
2012,06,25,11,30,16.10
2012,06,25,11,31,16.10
2012,06,25,11,32,16.10
2012,06,25,11,33,16.20
2012,06,25,11,34,16.20
2012,06,25,11,35,16.20
2012,06,25,11,36,16.30
2012,06,25,11,37,16.30
2012,06,25,11,38,16.30
2012,06,25,11,39,16.30
2012,06,25,11,40,16.20
2012,06,25,11,41,16.30
2012,06,25,11,42,16.40
2012,06,25,11,43,16.40
2012,06,25,11,44,16.50
2012,06,25,11,45,16.60
2012,06,25,11,46,16.60
2012,06,25,11,47,16.60
2012,06,25,11,48,16.50
2012,06,25,11,49,16.40
2012,06,25,11,50,16.50
2012,06,25,11,51,16.60
2012,06,25,11,52,16.70
2012,06,25,11,53,16.60
2012,06,25,11,54,16.50
2012,06,25,11,55,16.40
2012,06,25,11,56,16.40
2012,06,25,11,57,16.40
2012,06,25,11,58,16.50
2012,06,25,11,59,16.60
2012,06,25,12,00,16.50
2012,06,25,12,01,16.60
2012,06,25,12,02,16.60
2012,06,25,12,03,16.60
2012,06,25,12,04,16.50
2012,06,25,12,05,16.40
2012,06,25,12,06,16.40
2012,06,25,12,07,16.50
2012,06,25,12,08,16.60
2012,06,25,12,09,16.50
2012,06,25,12,10,16.40
2012,06,25,12,11,16.40
2012,06,25,12,12,16.20
2012,06,25,12,13,16.10
2012,06,25,12,14,16.00
2012,06,25,12,15,15.80
2012,06,25,12,16,15.80
2012,06,25,12,17,15.70
2012,06,25,12,18,15.70
2012,06,25,12,19,15.60
2012,06,25,12,20,15.60
2012,06,25,12,21,15.60
2012,06,25,12,22,15.50
2012,06,25,12,23,15.50
2012,06,25,12,24,15.40
2012,06,25,12,25,15.40
2012,06,25,12,26,15.30
2012,06,25,12,27,15.30
2012,06,25,12,28,15.30
2012,06,25,12,29,15.30
2012,06,25,12,30,15.40
2012,06,25,12,31,15.40
2012,06,25,12,32,15.40
2012,06,25,12,33,15.30
2012,06,25,12,34,15.40
2012,06,25,12,35,15.50
2012,06,25,12,36,15.50
2012,06,25,12,37,15.50
2012,06,25,12,38,15.60
2012,06,25,12,39,15.60
2012,06,25,12,40,15.60
2012,06,25,12,41,15.60
2012,06,25,12,42,15.50
2012,06,25,12,43,15.50
2012,06,25,12,44,15.50
2012,06,25,12,45,15.50
2012,06,25,12,46,15.50
2012,06,25,12,47,15.40
2012,06,25,12,48,15.40
2012,06,25,12,49,15.30
2012,06,25,12,50,15.30
2012,06,25,12,51,15.30
2012,06,25,12,52,15.30
2012,06,25,12,53,15.30
2012,06,25,12,54,15.30
2012,06,25,12,55,15.30
2012,06,25,12,56,15.30
2012,06,25,12,57,15.30
2012,06,25,12,58,15.30
2012,06,25,12,59,15.30
2012,06,25,13,00,15.20
2012,06,25,13,01,15.10
2012,06,25,13,02,15.10
2012,06,25,13,03,15.00
2012,06,25,13,04,14.90
2012,06,25,13,05,14.90
2012,06,25,13,06,14.80
2012,06,25,13,07,14.90
2012,06,25,13,08,14.90
2012,06,25,13,09,15.00
2012,06,25,13,10,15.00
2012,06,25,13,11,15.00
2012,06,25,13,12,15.00
2012,06,25,13,13,15.00
2012,06,25,13,14,15.00
2012,06,25,13,15,15.00
2012,06,25,13,16,15.00
2012,06,25,13,17,15.10
2012,06,25,13,18,15.10
2012,06,25,13,19,15.10
2012,06,25,13,20,15.10
2012,06,25,13,21,15.10
2012,06,25,13,22,15.20
2012,06,25,13,23,15.20
2012,06,25,13,24,15.20
2012,06,25,13,25,15.20
2012,06,25,13,26,15.20
2012,06,25,13,27,15.20
2012,06,25,13,28,15.10
2012,06,25,13,29,14.90
2012,06,25,13,30,14.80
2012,06,25,13,31,14.70
2012,06,25,13,32,14.70
2012,06,25,13,33,14.70
2012,06,25,13,34,14.60
2012,06,25,13,35,14.50
2012,06,25,13,36,14.50
2012,06,25,13,37,14.50
2012,06,25,13,38,14.50
2012,06,25,13,39,14.50
2012,06,25,13,40,14.50
2012,06,25,13,41,14.50
2012,06,25,13,42,14.40
2012,06,25,13,43,14.40
2012,06,25,13,44,14.40
2012,06,25,13,45,14.50
2012,06,25,13,46,14.50
2012,06,25,13,47,14.60
2012,06,25,13,48,14.60
2012,06,25,13,49,14.70
2012,06,25,13,50,14.70
2012,06,25,13,51,14.80
2012,06,25,13,52,14.80
2012,06,25,13,53,14.90
2012,06,25,13,54,14.90
2012,06,25,13,55,14.90
2012,06,25,13,56,15.00
2012,06,25,13,57,15.10
2012,06,25,13,58,15.10
2012,06,25,13,59,15.20
2012,06,25,14,00,15.30
2012,06,25,14,01,15.30
2012,06,25,14,02,15.50
2012,06,25,14,03,15.50
2012,06,25,14,04,15.60
2012,06,25,14,05,15.70
2012,06,25,14,06,15.80
2012,06,25,14,07,15.90
2012,06,25,14,08,15.90
2012,06,25,14,09,16.00
2012,06,25,14,10,16.10
2012,06,25,14,11,16.10
2012,06,25,14,12,16.10
2012,06,25,14,13,16.00
2012,06,25,14,14,16.00
2012,06,25,14,15,16.10
2012,06,25,14,16,16.10
2012,06,25,14,17,16.10
2012,06,25,14,18,16.10
2012,06,25,14,19,16.10
2012,06,25,14,20,16.10
2012,06,25,14,21,16.10
2012,06,25,14,22,16.20
2012,06,25,14,23,16.20
2012,06,25,14,24,16.10
2012,06,25,14,25,16.10
2012,06,25,14,26,16.10
2012,06,25,14,27,16.10
2012,06,25,14,28,16.10
2012,06,25,14,29,16.10
2012,06,25,14,30,16.20
2012,06,25,14,31,16.20
2012,06,25,14,32,16.20
2012,06,25,14,33,16.30
2012,06,25,14,34,16.30
2012,06,25,14,35,16.40
2012,06,25,14,36,16.40
2012,06,25,14,37,16.40
2012,06,25,14,38,16.40
2012,06,25,14,39,16.40
2012,06,25,14,40,16.60
2012,06,25,14,41,16.70
2012,06,25,14,42,16.80
2012,06,25,14,43,16.90
2012,06,25,14,44,17.00
2012,06,25,14,45,17.20
2012,06,25,14,46,17.30
2012,06,25,14,47,17.40
2012,06,25,14,48,17.50
2012,06,25,14,49,17.60
2012,06,25,14,50,17.60
2012,06,25,14,51,17.70
2012,06,25,14,52,17.80
2012,06,25,14,53,17.80
2012,06,25,14,54,17.90
2012,06,25,14,55,17.90
2012,06,25,14,56,18.00
2012,06,25,14,57,18.10
2012,06,25,14,58,18.20
2012,06,25,14,59,18.30
2012,06,25,15,00,18.50
2012,06,25,15,01,18.60
2012,06,25,15,02,18.60
2012,06,25,15,03,18.70
2012,06,25,15,04,18.60
2012,06,25,15,05,18.50
2012,06,25,15,06,18.50
2012,06,25,15,07,18.50
2012,06,25,15,08,18.50
2012,06,25,15,09,18.50
2012,06,25,15,10,18.50
2012,06,25,15,11,18.50
2012,06,25,15,12,18.60
2012,06,25,15,13,18.70
2012,06,25,15,14,18.80
2012,06,25,15,15,18.90
2012,06,25,15,16,18.80
2012,06,25,15,17,18.80
2012,06,25,15,18,18.90
2012,06,25,15,19,18.90
2012,06,25,15,20,18.70
2012,06,25,15,21,18.60
2012,06,25,15,22,18.40
2012,06,25,15,23,18.20
2012,06,25,15,24,18.10
2012,06,25,15,25,18.00
2012,06,25,15,26,17.90
2012,06,25,15,27,18.10
2012,06,25,15,28,18.10
2012,06,25,15,29,18.10
2012,06,25,15,30,18.10
2012,06,25,15,31,18.10
2012,06,25,15,32,18.00
2012,06,25,15,33,17.90
2012,06,25,15,34,17.90
2012,06,25,15,35,17.80
2012,06,25,15,36,17.70
2012,06,25,15,37,17.60
2012,06,25,15,38,17.60
2012,06,25,15,39,17.60
2012,06,25,15,40,17.70
2012,06,25,15,41,17.70
2012,06,25,15,42,17.80
2012,06,25,15,43,17.80
2012,06,25,15,44,17.80
2012,06,25,15,45,17.80
2012,06,25,15,46,17.70
2012,06,25,15,47,17.70
2012,06,25,15,48,17.60
2012,06,25,15,49,17.50
2012,06,25,15,50,17.50
2012,06,25,15,51,17.50
2012,06,25,15,52,17.50
2012,06,25,15,53,17.50
2012,06,25,15,54,17.50
2012,06,25,15,55,17.40
2012,06,25,15,56,17.30
2012,06,25,15,57,17.30
2012,06,25,15,58,17.30
2012,06,25,15,59,17.30
2012,06,25,16,00,17.40
2012,06,25,16,01,17.50
2012,06,25,16,02,17.50
2012,06,25,16,03,17.50
2012,06,25,16,04,17.40
2012,06,25,16,05,17.40
2012,06,25,16,06,17.30
2012,06,25,16,07,17.40
2012,06,25,16,08,17.40
2012,06,25,16,09,17.40
2012,06,25,16,10,17.30
2012,06,25,16,11,17.10
2012,06,25,16,12,16.90
2012,06,25,16,13,16.80
2012,06,25,16,14,16.70
2012,06,25,16,15,16.70
2012,06,25,16,16,16.50
2012,06,25,16,17,16.40
2012,06,25,16,18,16.20
2012,06,25,16,19,16.10
2012,06,25,16,20,16.20
2012,06,25,16,21,16.20
2012,06,25,16,22,16.20
2012,06,25,16,23,16.20
2012,06,25,16,24,16.20
2012,06,25,16,25,16.10
2012,06,25,16,26,15.90
2012,06,25,16,27,15.70
2012,06,25,16,28,15.50
2012,06,25,16,29,15.30
2012,06,25,16,30,15.20
2012,06,25,16,31,15.20
2012,06,25,16,32,15.20
2012,06,25,16,33,15.20
2012,06,25,16,34,15.10
2012,06,25,16,35,15.10
2012,06,25,16,36,15.10
2012,06,25,16,37,15.00
2012,06,25,16,38,14.90
2012,06,25,16,39,14.90
2012,06,25,16,40,14.80
2012,06,25,16,41,14.80
2012,06,25,16,42,14.80
2012,06,25,16,43,14.70
2012,06,25,16,44,14.60
2012,06,25,16,45,14.50
2012,06,25,16,46,14.50
2012,06,25,16,47,14.50
2012,06,25,16,48,14.60
2012,06,25,16,49,14.60
2012,06,25,16,50,14.60
2012,06,25,16,51,14.60
2012,06,25,16,52,14.60
2012,06,25,16,53,14.70
2012,06,25,16,54,14.80
2012,06,25,16,55,14.80
2012,06,25,16,56,14.80
2012,06,25,16,57,14.80
2012,06,25,16,58,14.80
2012,06,25,16,59,14.80
2012,06,25,17,00,14.80
2012,06,25,17,01,14.80
2012,06,25,17,02,14.80
2012,06,25,17,03,14.80
2012,06,25,17,04,14.80
2012,06,25,17,05,14.80
2012,06,25,17,06,14.80
2012,06,25,17,07,14.80
2012,06,25,17,08,14.80
2012,06,25,17,09,14.80
2012,06,25,17,10,14.80
2012,06,25,17,11,14.80
2012,06,25,17,12,14.80
2012,06,25,17,13,14.70
2012,06,25,17,14,14.60
2012,06,25,17,15,14.50
2012,06,25,17,16,14.40
2012,06,25,17,17,14.20
2012,06,25,17,18,14.20
2012,06,25,17,19,14.00
2012,06,25,17,20,14.00
2012,06,25,17,21,13.90
2012,06,25,17,22,13.80
2012,06,25,17,23,13.80
2012,06,25,17,24,13.80
2012,06,25,17,25,13.80
2012,06,25,17,26,13.80
2012,06,25,17,27,13.80
2012,06,25,17,28,13.80
2012,06,25,17,29,13.80
2012,06,25,17,30,13.70
2012,06,25,17,31,13.60
2012,06,25,17,32,13.50
2012,06,25,17,33,13.50
2012,06,25,17,34,13.40
2012,06,25,17,35,13.30
2012,06,25,17,36,13.30
2012,06,25,17,37,13.30
2012,06,25,17,38,13.30
2012,06,25,17,39,13.30
2012,06,25,17,40,13.30
2012,06,25,17,41,13.30
2012,06,25,17,42,13.30
2012,06,25,17,43,13.30
2012,06,25,17,44,13.30
2012,06,25,17,45,13.30
2012,06,25,17,46,13.30
2012,06,25,17,47,13.20
2012,06,25,17,48,13.20
2012,06,25,17,49,13.20
2012,06,25,17,50,13.10
2012,06,25,17,51,13.10
2012,06,25,17,52,13.00
2012,06,25,17,53,13.00
2012,06,25,17,54,12.90
2012,06,25,17,55,12.90
2012,06,25,17,56,12.90
2012,06,25,17,57,12.80
2012,06,25,17,58,12.80
2012,06,25,17,59,12.80
2012,06,25,18,00,12.80
2012,06,25,18,01,12.80
2012,06,25,18,02,12.90
2012,06,25,18,03,12.90
2012,06,25,18,04,13.00
2012,06,25,18,05,13.00
2012,06,25,18,06,13.10
2012,06,25,18,07,13.10
2012,06,25,18,08,13.20
2012,06,25,18,09,13.20
2012,06,25,18,10,13.20
2012,06,25,18,11,13.20
2012,06,25,18,12,13.20
2012,06,25,18,13,13.10
2012,06,25,18,14,13.10
2012,06,25,18,15,13.10
2012,06,25,18,16,13.10
2012,06,25,18,17,13.10
2012,06,25,18,18,13.10
2012,06,25,18,19,13.10
2012,06,25,18,20,13.10
2012,06,25,18,21,13.10
2012,06,25,18,22,13.10
2012,06,25,18,23,13.10
2012,06,25,18,24,13.10
2012,06,25,18,25,13.00
2012,06,25,18,26,13.00
2012,06,25,18,27,13.00
2012,06,25,18,28,13.10
2012,06,25,18,29,13.10
2012,06,25,18,30,13.10
2012,06,25,18,31,13.10
2012,06,25,18,32,13.20
2012,06,25,18,33,13.20
2012,06,25,18,34,13.30
2012,06,25,18,35,13.30
2012,06,25,18,36,13.30
2012,06,25,18,37,13.30
2012,06,25,18,38,13.30
2012,06,25,18,39,13.30
2012,06,25,18,40,13.30
2012,06,25,18,41,13.40
2012,06,25,18,42,13.40
2012,06,25,18,43,13.50
2012,06,25,18,44,13.50
2012,06,25,18,45,13.60
2012,06,25,18,46,13.60
2012,06,25,18,47,13.70
2012,06,25,18,48,13.70
2012,06,25,18,49,13.70
2012,06,25,18,50,13.80
2012,06,25,18,51,13.90
2012,06,25,18,52,14.00
2012,06,25,18,53,14.10
2012,06,25,18,54,14.20
2012,06,25,18,55,14.30
2012,06,25,18,56,14.40
2012,06,25,18,57,14.50
2012,06,25,18,58,14.60
2012,06,25,18,59,14.60
2012,06,25,19,00,14.70
2012,06,25,19,01,14.80
2012,06,25,19,02,14.80
2012,06,25,19,03,14.80
2012,06,25,19,04,14.80
2012,06,25,19,05,14.80
2012,06,25,19,06,14.80
2012,06,25,19,07,14.80
2012,06,25,19,08,14.80
2012,06,25,19,09,14.80
2012,06,25,19,10,14.80
2012,06,25,19,11,14.80
2012,06,25,19,12,14.80
2012,06,25,19,13,14.80
2012,06,25,19,14,14.70
2012,06,25,19,15,14.70
2012,06,25,19,16,14.60
2012,06,25,19,17,14.60
2012,06,25,19,18,14.60
2012,06,25,19,19,14.50
2012,06,25,19,20,14.50
2012,06,25,19,21,14.50
2012,06,25,19,22,14.50
2012,06,25,19,23,14.50
2012,06,25,19,24,14.50
2012,06,25,19,25,14.50
2012,06,25,19,26,14.50
2012,06,25,19,27,14.50
2012,06,25,19,28,14.50
2012,06,25,19,29,14.60
2012,06,25,19,30,14.60
2012,06,25,19,31,14.60
2012,06,25,19,32,14.70
2012,06,25,19,33,14.70
2012,06,25,19,34,14.70
2012,06,25,19,35,14.70
2012,06,25,19,36,14.70
2012,06,25,19,37,14.70
2012,06,25,19,38,14.70
2012,06,25,19,39,14.70
2012,06,25,19,40,14.70
2012,06,25,19,41,14.70
2012,06,25,19,42,14.70
